Regional Weather Roundup
Issued by NWS

Home | Current Version | Previous Version | Graphics & Text | Print | Product List | Glossary On
Versions: 1 2 3 4 5 6 7 8 9 10 11 12 13 14 15 16 17 18 19 20 21 22 23 24 25 26 27 28 29 30 31 32 33 34 35 36 37 38 39 40 41 42 43 44 45 46 47 48 49 50
000
ASUS43 KLSX 270907
RWRMO

WEATHER SUMMARY FOR MISSOURI
NATIONAL WEATHER SERVICE SPRINGFIELD MO
400 AM CDT TUE JUN 27 2017

NOTE: "FAIR" INDICATES FEW OR NO CLOUDS BELOW 12,000 FEET WITH NO
       SIGNIFICANT WEATHER AND/OR OBSTRUCTIONS TO VISIBILITY.
       CURRENT SKY AND/OR WEATHER CONDITIONS ARE NOT AVAILABLE FOR
       CHILLICOTHE AND FARMINGTON.

MOZ001>031-035>038-043-044-053-054-271000-
...NORTHERN AND WESTERN MISSOURI...

CITY           SKY/WX    TMP DP  RH WIND       PRES   REMARKS
KANSAS CTY INT CLEAR     58  56  93 SE7       30.13F
KANSAS C DTWN  CLEAR     60  59  96 NE3       30.12F
LEE`S SUMMIT   CLEAR     58  58 100 E3        30.13F
ST JOSEPH      FOG       53  53 100 CALM      30.14S VSB 1/4
CHILLICOTHE      N/A     54  54 100 CALM      30.15F
KIRKSVILLE     CLEAR     54  50  86 NE7       30.15F

$$
MOZ066>068-077>081-088>096-101>105-271000-
...SOUTHWEST MISSOURI...

CITY           SKY/WX    TMP DP  RH WIND       PRES   REMARKS
SPRINGFIELD    PTCLDY    60  59  96 E6        30.11F
JOPLIN         CLOUDY    63  62  97 SE5       30.10R
BRANSON        CLOUDY    59  59 100 SE3       30.13S

$$
MOZ032>034-039>042-045>050-055>058-069>072-271000-
...CENTRAL MISSOURI...

CITY           SKY/WX    TMP DP  RH WIND       PRES   REMARKS
COLUMBIA       FOG       56  56 100 NE6       30.15S VSB 1
JEFFERSON CITY FOG       58  57  97 CALM      30.15S VSB 1/4
ROLLA          CLEAR     53  53 100 CALM      30.14S
SEDALIA          N/A     57  57 100 CALM      30.14F FOG
WARRENSBURG    FOG       54  54 100 CALM      30.13F VSB 1/4
OSAGE BEACH    CLEAR     55  54  96 CALM      30.15S

$$
MOZ051-052-059>065-271000-
...EAST CENTRAL MISSOURI...

CITY           SKY/WX    TMP DP  RH WIND       PRES   REMARKS
ST LOUIS INTL  CLEAR     61  56  83 CALM      30.14S
SPIRIT OF STL  CLEAR     53  53 100 CALM      30.13S FOG
ST CHARLES     PTCLDY    56  55  97 CALM      30.13S

$$
MOZ072>076-082>087-097>100-106>115-271000-
...SOUTH CENTRAL AND SOUTHEAST MISSOURI...

CITY           SKY/WX    TMP DP  RH WIND       PRES   REMARKS
CAPE GIRARDEAU PTCLDY    59  57  93 CALM      30.12S
FARMINGTON     CLEAR     58  54  86 CALM      30.15S
POPLAR BLUFF   CLOUDY    63  62  97 W7        30.14R
WEST PLAINS    PTCLDY    60  59  96 E5        30.15S

$$




USA.gov is the U.S. government's official web portal to all federal, state and local government web resources and services.